Location: Unspecified
(0.0000°N, 0.0000°E)
Time: 19:42:02

Vanguard 1 Rocket - Pass Details

Date: 08 December 2017
Orbit: 655 x 4222 km, 34.3° (Epoch: 19 March)

Event Time Altitude Azimuth Distance (km) Brightness Sun altitude
Rises 03:45:22 0° 296° (WNW) 8,392 - -28.9°
Reaches altitude 10° 03:51:52 10° 292° (WNW) 7,147 - -27.5°
Exits shadow 04:02:16 30° 279° (W) 5,040 10.6 -25.1°
Maximum altitude 04:13:14 51° 222° (SW) 3,258 10.0 -22.6°
Drops below altitude 10° 04:25:02 10° 148° (SSE) 4,148 11.6 -19.9°
Sets 04:27:45 0° 142° (SE) 4,785 12.2 -19.3°
